STARLINK-11531, 62841

Orbit data source: Space-Track

STARLINK-11531, 62841 is a payload satellite owned by SpaceX/Seattle (US) in LEO that was launched on Mon, 27 Jan 2025 UTC via an FALCON 9 launch vehicle from the Air Force Eastern Test Range (AFETR). Payload-class satellites include a variety of spacecraft equipped with specific instruments for various scientific and technological missions. These include communications satellites like Starlink; space stations such as the ISS; scientific satellites like the Hubble; Earth observation satellites from companies like Planet Labs, Umbra, and HawkEye 360; GPS; miniature CubeSats for education and research; and military/defense satellites.

Loading next visibility...
Identifier
62841, 2025-019N
Orbit
LEO
Last TLE update
8 hours ago
Origin
Manufacturer
SpaceX/Seattle
Mission
Operational Commercial Communications
Bus & Motor
STARLINK V2M, Unknown motor
Mass
730 kg wet, ~700 kg dry
Launch date (UTC)
2025-01-27 (3 months ago)
Launch vehicle
FALCON 9
Launch site
Air Force Eastern Test Range (AFETR)
Object type
Payload
Rocket body
Debris
Shape & HBR
Box + 2 Pan, 29 m
Radar Cross Section
36.964 m², Large (>1 m²)

Expand to show TLE details & history

TLE from 8 hours ago
0 STARLINK-11531
1 62841U 25019N   25128.90158519  .00000881  00000-0  10370-4 0  9996
2 62841  43.0002 343.3079 0002008 273.7960  86.2678 15.70833465 15943
Epoch: 2025-05-08T21:38Z
Definitive object data (Epoch: 2025-05-08T21:38:16.96Z)
Latitude
-0.00002°
Longitude
151.77178°
Altitude
356.197 km
Speed
7.697 km/s
True Right ascension
22h 53m 13s
True Declination
0° 00' 00"
Sunlit
Object was in daylight at TLE epoch
Visualization TLE readout
Latitude
29.94097°
Longitude
-172.30229°
Altitude
357.941 km
Speed
7.699 km/s
Apparent Right ascension
01h 25m 55s
Apparent Declination
-3° 52' 43"
Sunlit
Object is in daylight
Visualization observer readout
Local Sidereal Time
13:36:38
Azimuth
4.539° NNE
Elevation
-53.881°
Doppler factor
1
Orbital elements
Apogee altitude
359.848 km
Perigee altitude
357.143 km
Semi-major axis
6,736.632 km
Eccentricity
0.0002008
Inclination
43.0002°
RAAN
343.3079°
Arg. of periapsis
273.796°
True anomaly
86.29076°
Mean anomaly
86.2678°
Eccentric anomaly
86.27928°
Mean motion
3.92535 °/min
BSTAR
0.00001037
Orbital period
91.71 mins
Loading maneuver chart data...
Loading SW <> Apogee altitude chart data...
Loading historical data...
Loading historical data...
Loading historical data...
Loading historical data...
Loading historical data...
Loading historical data...
Loading historical data...

STARLINK-11531 Visibility forecast

Observer location: undefined°, undefined°

Span
Click to sort rows by Start time (UTC) header in descending order
Start Az.
Max El. time (UTC)
Max El. Az.
Max El.
End time (UTC)
End Az.
4 mins2025-05-09 17:41:58.118Z216.534° SW2025-05-09 17:43:58.118Z153.887° SSE31.567°2025-05-09 17:45:58.118Z89.649° E
4 mins2025-05-09 20:54:58.118Z303.718° NW2025-05-09 20:55:58.118Z336.69° NNW34.241°2025-05-09 20:58:58.118Z81.464° E
4 mins2025-05-09 22:30:58.118Z275.07° WNW2025-05-09 22:32:58.118Z165.18° S37.398°2025-05-09 22:34:58.118Z126.037° SE
|